,,PA_Meas_PMT16A,,PR_Meas_QMR101_102,,RH_Meas_QMH101,,SR_Meas_QMS101,,TA_Meas_QMH101,,GenWind,,GenWind,
time,status,PA,status,PR,status,RH,status,SR,status,TA,status,DirAvg,status,SpdAvg,
2010-03-18, 00:00:04,VALID,920.042,VALID,0,VALID,89.3769,VALID,0.107441,VALID,20.4993,VALID,200,VALID,0.285156,
2010-03-18, 00:01:04,VALID,920.039,VALID,0,VALID,89.3541,VALID,0.107441,VALID,20.5399,VALID,200,VALID,0.519922,
2010-03-18, 00:02:04,VALID,920.029,VALID,0,VALID,89.2245,VALID,0.107441,VALID,20.4798,VALID,199,VALID,0.669922,
2010-03-18, 00:03:04,VALID,920.004,VALID,0,VALID,89.0796,VALID,0.107441,VALID,20.4813,VALID,196,VALID,0.765625,
2010-03-18, 00:04:04,VALID,920.041,VALID,0,VALID,89.3464,VALID,0.107441,VALID,20.4618,VALID,115,VALID,0.945313,
2010-03-18, 00:05:04,VALID,920.044,VALID,0,VALID,89.5065,VALID,0.107441,VALID,20.4228,VALID,115,VALID,0.679688,
2010-03-18, 00:06:04,VALID,920.025,VALID,0,VALID,89.6056,VALID,0.107441,VALID,20.3838,VALID,115,VALID,0.864453,
2010-03-18, 00:07:04,VALID,920.06,VALID,0,VALID,89.5142,VALID,0.107441,VALID,20.4228,VALID,115,VALID,1.31094,
2010-03-18, 00:08:04,VALID,920.023,VALID,0,VALID,89.2778,VALID,0.107441,VALID,20.4813,VALID,115,VALID,0.943359,
2010-03-18, 00:09:04,VALID,919.999,VALID,0,VALID,89.0796,VALID,0.107441,VALID,20.5399,VALID,115,VALID,0.796094,
2010-03-18, 00:10:04,VALID,920.014,VALID,0,VALID,88.9729,VALID,0,VALID,20.5609,VALID,115,VALID,0.699219,
2010-03-18, 00:11:04,VALID,919.986,VALID,0,VALID,88.9348,VALID,0.107441,VALID,20.5399,VALID,115,VALID,0.925,
2010-03-18, 00:12:04,VALID,919.968,VALID,0,VALID,88.9424,VALID,0.107441,VALID,20.5204,VALID,154,VALID,1.19492,
2010-03-18, 00:13:04,VALID,919.965,VALID,0,VALID,89.0186,VALID,0.107441,VALID,20.5204,VALID,160,VALID,0.405859,
2010-03-18, 00:14:04,VALID,919.93,VALID,0,VALID,89.255,VALID,0.107441,VALID,20.4813,VALID,135,VALID,1.21406,
2010-03-18, 00:15:04,VALID,919.994,VALID,0,VALID,89.2702,VALID,0.107441,VALID,20.5009,VALID,130,VALID,1.57539,
2010-03-18, 00:16:04,VALID,919.964,VALID,0,VALID,89.2245,VALID,0.107441,VALID,20.4798,VALID,102,VALID,1.14961,
2010-03-18, 00:17:04,VALID,919.957,VALID,0,VALID,89.2321,VALID,0.107441,VALID,20.4993,VALID,103,VALID,0.942578,
2010-03-18, 00:18:04,VALID,919.944,VALID,0,VALID,88.8814,VALID,0.107441,VALID,20.5984,VALID,146,VALID,1.3207,
2010-03-18, 00:19:04,VALID,919.936,VALID,0,VALID,88.5231,VALID,0.107441,VALID,20.6569,VALID,154,VALID,0.744141,
2010-03-18, 00:20:04,VALID,919.921,VALID,0,VALID,88.5231,VALID,0.107441,VALID,20.6569,VALID,154,VALID,0.837891,
2010-03-18, 00:21:04,VALID,919.908,VALID,0,VALID,88.5384,VALID,0.107441,VALID,20.6764,VALID,154,VALID,1.15,
2010-03-18, 00:22:04,VALID,919.885,VALID,0,VALID,88.3554,VALID,0.107441,VALID,20.7154,VALID,154,VALID,1.33047,
2010-03-18, 00:23:04,VALID,919.894,VALID,0,VALID,88.0962,VALID,0.107441,VALID,20.7544,VALID,154,VALID,0.603906,
2010-03-18, 00:24:04,VALID,919.873,VALID,0,VALID,88.0505,VALID,0.107441,VALID,20.7544,VALID,154,VALID,0.823438,
2010-03-18, 00:25:04,VALID,919.85,VALID,0,VALID,88.2792,VALID,0.107441,VALID,20.7154,VALID,154,VALID,0.810156,
2010-03-18, 00:26:04,VALID,919.847,VALID,0,VALID,88.4392,VALID,0.107441,VALID,20.6764,VALID,154,VALID,0.867188,
2010-03-18, 00:27:04,VALID,919.867,VALID,0,VALID,88.6756,VALID,0.107441,VALID,20.6374,VALID,154,VALID,1.03594,
2010-03-18, 00:28:04,VALID,919.851,VALID,0,VALID,88.7747,VALID,0.107441,VALID,20.6179,VALID,154,VALID,1.07773,
2010-03-18, 00:29:04,VALID,919.865,VALID,0,VALID,89.0415,VALID,0.107441,VALID,20.5984,VALID,154,VALID,1.29102,
2010-03-18, 00:30:04,VALID,919.846,VALID,0,VALID,89.1482,VALID,0.107441,VALID,20.6179,VALID,161,VALID,1.32187,
2010-03-18, 00:31:04,VALID,919.865,VALID,0,VALID,89.2931,VALID,0.107441,VALID,20.5984,VALID,144,VALID,1.75156,
2010-03-18, 00:32:04,VALID,919.835,VALID,0,VALID,89.0567,VALID,0.107441,VALID,20.6569,VALID,148,VALID,1.48906,
2010-03-18, 00:33:04,VALID,919.833,VALID,0,VALID,88.6222,VALID,0.107441,VALID,20.7739,VALID,153,VALID,1.33125,
2010-03-18, 00:34:04,VALID,919.846,VALID,0,VALID,88.302,VALID,0.107441,VALID,20.8129,VALID,173,VALID,1.16641,
2010-03-18, 00:35:04,VALID,919.838,VALID,0,VALID,88.1343,VALID,0.107441,VALID,20.8714,VALID,175,VALID,0.829687,
2010-03-18, 00:36:04,VALID,919.887,VALID,0,VALID,88.1419,VALID,0,VALID,20.8519,VALID,161,VALID,1.57383,
2010-03-18, 00:37:04,VALID,919.874,VALID,0,VALID,88.2639,VALID,0.107441,VALID,20.8519,VALID,163,VALID,0.853516,
2010-03-18, 00:38:04,VALID,919.883,VALID,0,VALID,88.4164,VALID,0.107441,VALID,20.8324,VALID,163,VALID,0.747266,
2010-03-18, 00:39:04,VALID,919.886,VALID,0,VALID,88.4088,VALID,0,VALID,20.834,VALID,163,VALID,0.708203,
2010-03-18, 00:40:04,VALID,919.882,VALID,0,VALID,88.5307,VALID,0,VALID,20.8129,VALID,178,VALID,1.29883,
2010-03-18, 00:41:04,VALID,919.914,VALID,0,VALID,88.5612,VALID,0,VALID,20.834,VALID,171,VALID,0.633203,
2010-03-18, 00:42:04,VALID,919.916,VALID,0,VALID,88.5688,VALID,0,VALID,20.834,VALID,171,VALID,0.850781,
2010-03-18, 00:43:04,VALID,919.899,VALID,0,VALID,88.5688,VALID,0,VALID,20.8145,VALID,146,VALID,1.03008,
2010-03-18, 00:44:04,VALID,919.881,VALID,0,VALID,88.546,VALID,0,VALID,20.795,VALID,146,VALID,1.16367,
2010-03-18, 00:45:04,VALID,919.895,VALID,0,VALID,88.4697,VALID,0,VALID,20.8145,VALID,145,VALID,0.364453,
2010-03-18, 00:46:04,VALID,919.889,VALID,0,VALID,88.3706,VALID,0,VALID,20.8535,VALID,145,VALID,0.479688,
2010-03-18, 00:47:04,VALID,919.905,VALID,0,VALID,88.1724,VALID,0,VALID,20.873,VALID,145,VALID,0.908984,
2010-03-18, 00:48:04,VALID,919.887,VALID,0,VALID,88.1114,VALID,0,VALID,20.8925,VALID,135,VALID,0.960156,
2010-03-18, 00:49:04,VALID,919.896,VALID,0,VALID,88.0123,VALID,0,VALID,20.9105,VALID,152,VALID,1.36094,
2010-03-18, 00:50:04,VALID,919.877,VALID,0,VALID,87.9666,VALID,0,VALID,20.9316,VALID,165,VALID,1.02344,
2010-03-18, 00:51:04,VALID,919.834,VALID,0,VALID,87.9971,VALID,0,VALID,20.9105,VALID,169,VALID,1.09492,
2010-03-18, 00:52:04,VALID,919.831,VALID,0,VALID,88.2182,VALID,0,VALID,20.9105,VALID,178,VALID,0.472266,
2010-03-18, 00:53:04,VALID,919.808,VALID,0,VALID,88.2563,VALID,0,VALID,20.891,VALID,178,VALID,0.608984,
2010-03-18, 00:54:04,VALID,919.754,VALID,0,VALID,88.485,VALID,0.107441,VALID,20.8519,VALID,178,VALID,0.757031,
2010-03-18, 00:55:04,VALID,919.738,VALID,0,VALID,88.7061,VALID,0,VALID,20.834,VALID,178,VALID,0.878906,
2010-03-18, 00:56:04,VALID,919.743,VALID,0,VALID,88.828,VALID,0,VALID,20.7739,VALID,178,VALID,0.412109,
2010-03-18, 00:57:04,VALID,919.736,VALID,0,VALID,88.9805,VALID,0,VALID,20.756,VALID,178,VALID,0.514453,
2010-03-18, 00:58:04,VALID,919.738,VALID,0,VALID,89.3312,VALID,0,VALID,20.6959,VALID,178,VALID,1.02461,
2010-03-18, 00:59:04,VALID,919.704,VALID,0,VALID,89.5065,VALID,0.107441,VALID,20.6764,VALID,178,VALID,1.36289,
2010-03-18, 01:00:04,VALID,919.697,VALID,0,VALID,89.598,VALID,0,VALID,20.678,VALID,154,VALID,1.06562,
2010-03-18, 01:01:04,VALID,919.673,VALID,0,VALID,89.5751,VALID,0,VALID,20.6975,VALID,139,VALID,1.52227,
2010-03-18, 01:02:04,VALID,919.65,VALID,0,VALID,89.6514,VALID,0,VALID,20.6975,VALID,131,VALID,0.882422,
2010-03-18, 01:03:04,VALID,919.606,VALID,0,VALID,89.7276,VALID,0,VALID,20.6975,VALID,145,VALID,1.3832,
2010-03-18, 01:04:04,VALID,919.586,VALID,0,VALID,89.9334,VALID,0,VALID,20.678,VALID,98,VALID,1.60469,
2010-03-18, 01:05:04,VALID,919.586,VALID,0,VALID,90.0478,VALID,0,VALID,20.6569,VALID,117,VALID,1.42852,
2010-03-18, 01:06:04,VALID,919.536,VALID,0,VALID,90.1545,VALID,0,VALID,20.639,VALID,122,VALID,1.38398,
2010-03-18, 01:07:04,VALID,919.527,VALID,0,VALID,90.2994,VALID,0,VALID,20.5804,VALID,142,VALID,1.02422,
2010-03-18, 01:08:04,VALID,919.503,VALID,0,VALID,90.5281,VALID,0,VALID,20.5204,VALID,133,VALID,0.988672,
2010-03-18, 01:09:04,VALID,919.487,VALID,0,VALID,90.8101,VALID,0,VALID,20.5219,VALID,130,VALID,1.77813,
2010-03-18, 01:10:04,VALID,919.481,VALID,0,VALID,90.8711,VALID,0,VALID,20.5024,VALID,127,VALID,1.87812,
2010-03-18, 01:11:04,VALID,919.415,VALID,0,VALID,90.8864,VALID,0.107441,VALID,20.5024,VALID,128,VALID,1.81797,
2010-03-18, 01:12:04,VALID,919.436,VALID,0,VALID,90.9397,VALID,0,VALID,20.4618,VALID,134,VALID,1.88828,
2010-03-18, 01:13:04,VALID,919.396,VALID,0,VALID,90.9626,VALID,0,VALID,20.4829,VALID,137,VALID,1.7207,
2010-03-18, 01:14:04,VALID,919.328,VALID,0,VALID,90.8635,VALID,0,VALID,20.4423,VALID,144,VALID,1.13281,
2010-03-18, 01:15:04,VALID,919.362,VALID,0,VALID,91.0465,VALID,0,VALID,20.4228,VALID,156,VALID,1.45313,
2010-03-18, 01:16:04,VALID,919.336,VALID,0,VALID,91.077,VALID,0,VALID,20.4439,VALID,159,VALID,0.640625,
2010-03-18, 01:17:04,VALID,919.335,VALID,0,VALID,91.1074,VALID,0,VALID,20.4244,VALID,159,VALID,0.801172,
2010-03-18, 01:18:04,VALID,919.342,VALID,0,VALID,91.3514,VALID,0,VALID,20.4049,VALID,159,VALID,1.25,
2010-03-18, 01:19:04,VALID,919.32,VALID,0,VALID,91.5725,VALID,0,VALID,20.3448,VALID,134,VALID,1.375,
2010-03-18, 01:20:04,VALID,919.313,VALID,0,VALID,91.603,VALID,0,VALID,20.3643,VALID,152,VALID,1.10039,
2010-03-18, 01:21:04,VALID,919.323,VALID,0,VALID,91.542,VALID,0,VALID,20.4049,VALID,131,VALID,1.50195,
2010-03-18, 01:22:04,VALID,919.306,VALID,0,VALID,91.4657,VALID,0,VALID,20.4033,VALID,154,VALID,1.60039,
2010-03-18, 01:23:04,VALID,919.302,VALID,0,VALID,91.359,VALID,0,VALID,20.4244,VALID,148,VALID,2.24727,
2010-03-18, 01:24:04,VALID,919.315,VALID,0,VALID,91.2523,VALID,0,VALID,20.4423,VALID,153,VALID,1.19648,
2010-03-18, 01:25:04,VALID,919.295,VALID,0,VALID,91.1608,VALID,0.107441,VALID,20.4618,VALID,136,VALID,1.21563,
2010-03-18, 01:26:04,VALID,919.312,VALID,0,VALID,91.1684,VALID,0.107441,VALID,20.4618,VALID,141,VALID,1.73281,
2010-03-18, 01:27:04,VALID,919.31,VALID,0,VALID,91.1074,VALID,0.107441,VALID,20.4798,VALID,138,VALID,1.76367,
2010-03-18, 01:28:04,VALID,919.293,VALID,0,VALID,91.0312,VALID,0.107441,VALID,20.5009,VALID,136,VALID,1.95547,
2010-03-18, 01:29:04,VALID,919.252,VALID,0,VALID,90.9321,VALID,0.107441,VALID,20.4813,VALID,132,VALID,1.07969,
2010-03-18, 01:30:04,VALID,919.227,VALID,0,VALID,90.9473,VALID,0.107441,VALID,20.4618,VALID,145,VALID,1.63789,
2010-03-18, 01:31:04,VALID,919.199,VALID,0,VALID,90.9397,VALID,0.107441,VALID,20.4618,VALID,130,VALID,1.69531,
2010-03-18, 01:32:04,VALID,919.187,VALID,0,VALID,90.894,VALID,0.107441,VALID,20.4618,VALID,89,VALID,1.22617,
2010-03-18, 01:33:04,VALID,919.134,VALID,0,VALID,90.8559,VALID,0.107441,VALID,20.4618,VALID,130,VALID,1.48945,
2010-03-18, 01:34:04,VALID,919.143,VALID,0,VALID,90.8178,VALID,0.107441,VALID,20.4618,VALID,130,VALID,2.01641,
2010-03-18, 01:35:04,VALID,919.087,VALID,0,VALID,90.772,VALID,0.107441,VALID,20.4423,VALID,125,VALID,0.777734,
2010-03-18, 01:36:04,VALID,919.075,VALID,0,VALID,90.8178,VALID,0.107441,VALID,20.4228,VALID,132,VALID,1.5543,
2010-03-18, 01:37:04,VALID,919.034,VALID,0,VALID,90.7644,VALID,0.214882,VALID,20.4423,VALID,121,VALID,1.3082,
2010-03-18, 01:38:04,VALID,919.069,VALID,0,VALID,90.6653,VALID,0.107441,VALID,20.4423,VALID,144,VALID,1.3125,
2010-03-18, 01:39:04,VALID,919.037,VALID,0,VALID,90.5509,VALID,0,VALID,20.4439,VALID,126,VALID,1.98672,
2010-03-18, 01:40:04,VALID,919.012,VALID,0,VALID,90.4671,VALID,0,VALID,20.4439,VALID,118,VALID,1.34531,
2010-03-18, 01:41:04,VALID,918.976,VALID,0,VALID,90.5509,VALID,0,VALID,20.4439,VALID,128,VALID,1.91484,
2010-03-18, 01:42:04,VALID,918.992,VALID,0,VALID,90.5738,VALID,0,VALID,20.4049,VALID,134,VALID,2.25234,
2010-03-18, 01:43:04,VALID,918.945,VALID,0,VALID,90.7873,VALID,0,VALID,20.3854,VALID,129,VALID,2.23086,
2010-03-18, 01:44:04,VALID,918.942,VALID,0,VALID,90.8025,VALID,0,VALID,20.3659,VALID,122,VALID,1.38828,
2010-03-18, 01:45:04,VALID,918.938,VALID,0,VALID,90.9245,VALID,0,VALID,20.3659,VALID,148,VALID,1.71563,
2010-03-18, 01:46:04,VALID,918.908,VALID,0,VALID,90.9321,VALID,0,VALID,20.3464,VALID,126,VALID,1.62422,
2010-03-18, 01:47:04,VALID,918.896,VALID,0,VALID,90.9702,VALID,0,VALID,20.3464,VALID,145,VALID,1.34648,
2010-03-18, 01:48:04,VALID,918.877,VALID,0,VALID,91.0083,VALID,0,VALID,20.3269,VALID,101,VALID,1.23828,
2010-03-18, 01:49:04,VALID,918.89,VALID,0,VALID,91.0083,VALID,0,VALID,20.3269,VALID,101,VALID,1.57031,
2010-03-18, 01:50:04,VALID,918.899,VALID,0,VALID,90.9702,VALID,0,VALID,20.3253,VALID,117,VALID,2.06055,
2010-03-18, 01:51:04,VALID,918.897,VALID,0,VALID,90.7415,VALID,0,VALID,20.3464,VALID,110,VALID,1.5,
2010-03-18, 01:52:04,VALID,918.884,VALID,0,VALID,90.7568,VALID,0,VALID,20.3464,VALID,137,VALID,1.56836,
2010-03-18, 01:53:04,VALID,918.885,VALID,0,VALID,90.7491,VALID,0,VALID,20.3253,VALID,117,VALID,1.88164,
2010-03-18, 01:54:04,VALID,918.855,VALID,0,VALID,91.0236,VALID,0,VALID,20.3074,VALID,135,VALID,2.20195,
2010-03-18, 01:55:04,VALID,918.843,VALID,0,VALID,91.0922,VALID,0,VALID,20.3269,VALID,138,VALID,1.61523,
2010-03-18, 01:56:04,VALID,918.84,VALID,0,VALID,90.955,VALID,0,VALID,20.3269,VALID,121,VALID,1.39648,
2010-03-18, 01:57:04,VALID,918.857,VALID,0,VALID,90.9321,VALID,0,VALID,20.3074,VALID,120,VALID,2.03672,
2010-03-18, 01:58:04,VALID,918.827,VALID,0,VALID,90.9778,VALID,0,VALID,20.3269,VALID,127,VALID,1.72266,
2010-03-18, 01:59:04,VALID,918.809,VALID,0,VALID,90.9397,VALID,0,VALID,20.3074,VALID,88,VALID,1.5832,
2010-03-18, 02:00:04,VALID,918.779,VALID,0,VALID,90.9778,VALID,0,VALID,20.3074,VALID,121,VALID,2.43242,
2010-03-18, 02:01:04,VALID,918.762,VALID,0,VALID,90.8864,VALID,0,VALID,20.3074,VALID,121,VALID,1.41992,
2010-03-18, 02:02:04,VALID,918.736,VALID,0,VALID,90.9931,VALID,0,VALID,20.2879,VALID,88,VALID,1.54453,
2010-03-18, 02:03:04,VALID,918.711,VALID,0,VALID,91.5496,VALID,0,VALID,20.2489,VALID,125,VALID,2.52891,
2010-03-18, 02:04:04,VALID,918.668,VALID,0,VALID,91.6716,VALID,0,VALID,20.2098,VALID,138,VALID,2.02734,
2010-03-18, 02:05:04,VALID,918.667,VALID,0,VALID,91.7326,VALID,0,VALID,20.2098,VALID,139,VALID,1.35625,
2010-03-18, 02:06:04,VALID,918.653,VALID,0,VALID,91.7021,VALID,0,VALID,20.2293,VALID,134,VALID,1.85625,
2010-03-18, 02:07:04,VALID,918.631,VALID,0,VALID,91.5648,VALID,0,VALID,20.2293,VALID,127,VALID,1.91328,
2010-03-18, 02:08:04,VALID,918.626,VALID,0,VALID,91.4505,VALID,0,VALID,20.2489,VALID,137,VALID,1.55469,
2010-03-18, 02:09:04,VALID,918.62,VALID,0,VALID,91.3209,VALID,0,VALID,20.2489,VALID,125,VALID,1.49219,
2010-03-18, 02:10:04,VALID,918.616,VALID,0,VALID,91.4124,VALID,0,VALID,20.2293,VALID,128,VALID,1.38984,
2010-03-18, 02:11:04,VALID,918.597,VALID,0,VALID,91.7021,VALID,0,VALID,20.1903,VALID,140,VALID,1.57383,
2010-03-18, 02:12:04,VALID,918.586,VALID,0,VALID,91.7326,VALID,0,VALID,20.1903,VALID,140,VALID,1.44141,
2010-03-18, 02:13:04,VALID,918.581,VALID,0,VALID,91.6792,VALID,0,VALID,20.1708,VALID,127,VALID,1.62305,
2010-03-18, 02:14:04,VALID,918.548,VALID,0,VALID,91.9155,VALID,0,VALID,20.1513,VALID,120,VALID,1.4082,
2010-03-18, 02:15:04,VALID,918.534,VALID,0,VALID,92.007,VALID,0,VALID,20.1318,VALID,120,VALID,1.10273,
2010-03-18, 02:16:04,VALID,918.535,VALID,0,VALID,91.9308,VALID,0,VALID,20.1513,VALID,122,VALID,1.00781,
2010-03-18, 02:17:04,VALID,918.538,VALID,0,VALID,91.9155,VALID,0,VALID,20.1708,VALID,149,VALID,1.84414,
2010-03-18, 02:18:04,VALID,918.516,VALID,0,VALID,91.5648,VALID,0,VALID,20.2894,VALID,127,VALID,1.86602,
2010-03-18, 02:19:04,VALID,918.506,VALID,0,VALID,91.0465,VALID,0,VALID,20.3659,VALID,123,VALID,1.72734,
2010-03-18, 02:20:04,VALID,918.471,VALID,0,VALID,90.8406,VALID,0,VALID,20.4244,VALID,123,VALID,2.44688,
2010-03-18, 02:21:04,VALID,918.44,VALID,0,VALID,90.6805,VALID,0,VALID,20.4439,VALID,153,VALID,1.82148,
2010-03-18, 02:22:04,VALID,918.43,VALID,0,VALID,90.4366,VALID,0,VALID,20.4829,VALID,162,VALID,1.00742,
2010-03-18, 02:23:04,VALID,918.41,VALID,0,VALID,90.4518,VALID,0,VALID,20.4634,VALID,147,VALID,0.860547,
2010-03-18, 02:24:04,VALID,918.414,VALID,0,VALID,90.4823,VALID,0.107441,VALID,20.4618,VALID,163,VALID,1.28242,
2010-03-18, 02:25:04,VALID,918.423,VALID,0,VALID,90.3604,VALID,0,VALID,20.4813,VALID,124,VALID,1.44805,
2010-03-18, 02:26:04,VALID,918.428,VALID,0,VALID,90.4823,VALID,0,VALID,20.4813,VALID,107,VALID,1.55313,
2010-03-18, 02:27:04,VALID,918.406,VALID,0,VALID,90.4061,VALID,0,VALID,20.4618,VALID,116,VALID,1.68711,
2010-03-18, 02:28:04,VALID,918.387,VALID,0,VALID,90.5281,VALID,0,VALID,20.4423,VALID,132,VALID,1.75312,
2010-03-18, 02:29:04,VALID,918.39,VALID,0,VALID,90.3985,VALID,0.107441,VALID,20.4634,VALID,135,VALID,1.17539,
2010-03-18, 02:30:04,VALID,918.358,VALID,0,VALID,90.4595,VALID,0,VALID,20.4423,VALID,128,VALID,1.01641,
2010-03-18, 02:31:04,VALID,918.376,VALID,0,VALID,90.65,VALID,0.107441,VALID,20.4033,VALID,165,VALID,1.33164,
2010-03-18, 02:32:04,VALID,918.335,VALID,0,VALID,90.5891,VALID,0,VALID,20.4228,VALID,152,VALID,1.45781,
2010-03-18, 02:33:04,VALID,918.351,VALID,0,VALID,90.3985,VALID,0,VALID,20.4618,VALID,188,VALID,0.942187,
2010-03-18, 02:34:04,VALID,918.337,VALID,0,VALID,88.95,VALID,0,VALID,20.5789,VALID,124,VALID,1.89922,
2010-03-18, 02:35:04,VALID,918.411,VALID,0,VALID,89.2626,VALID,0,VALID,20.6194,VALID,134,VALID,1.42578,
2010-03-18, 02:36:04,VALID,918.413,VALID,0,VALID,89.5294,VALID,0,VALID,20.5789,VALID,174,VALID,2.06172,
2010-03-18, 02:37:04,VALID,918.415,VALID,0,VALID,89.5446,VALID,0,VALID,20.5984,VALID,152,VALID,1.09492,
2010-03-18, 02:38:04,VALID,918.442,VALID,0,VALID,89.6285,VALID,0,VALID,20.5789,VALID,187,VALID,0.784375,
2010-03-18, 02:39:04,VALID,918.454,VALID,0,VALID,89.7047,VALID,0.107441,VALID,20.5594,VALID,141,VALID,0.966406,
2010-03-18, 02:40:04,VALID,918.44,VALID,0,VALID,89.8648,VALID,0,VALID,20.5204,VALID,149,VALID,1.43438,
2010-03-18, 02:41:04,VALID,918.45,VALID,0,VALID,89.8572,VALID,0,VALID,20.5204,VALID,154,VALID,1.56953,
2010-03-18, 02:42:04,VALID,918.409,VALID,0,VALID,89.7962,VALID,0.107441,VALID,20.5204,VALID,162,VALID,1.60664,
2010-03-18, 02:43:04,VALID,918.436,VALID,0,VALID,89.8725,VALID,0,VALID,20.4813,VALID,118,VALID,1.37734,
2010-03-18, 02:44:04,VALID,918.428,VALID,0,VALID,90.124,VALID,0,VALID,20.4423,VALID,136,VALID,0.785156,
2010-03-18, 02:45:04,VALID,918.45,VALID,0,VALID,90.2917,VALID,0.107441,VALID,20.4033,VALID,147,VALID,1.2168,
2010-03-18, 02:46:04,VALID,918.406,VALID,0,VALID,90.2003,VALID,0.107441,VALID,20.3838,VALID,161,VALID,1.0168,
2010-03-18, 02:47:04,VALID,918.424,VALID,0,VALID,90.124,VALID,0.107441,VALID,20.3643,VALID,125,VALID,1.22344,
2010-03-18, 02:48:04,VALID,918.441,VALID,0,VALID,89.8801,VALID,0,VALID,20.3448,VALID,160,VALID,1.34687,
2010-03-18, 02:49:04,VALID,918.417,VALID,0,VALID,89.6133,VALID,0.107441,VALID,20.3838,VALID,162,VALID,0.887109,
2010-03-18, 02:50:04,VALID,918.446,VALID,0,VALID,89.0567,VALID,0,VALID,20.4618,VALID,136,VALID,1.65625,
2010-03-18, 02:51:04,VALID,918.457,VALID,0,VALID,88.8967,VALID,0.107441,VALID,20.5009,VALID,113,VALID,0.916016,
2010-03-18, 02:52:04,VALID,918.434,VALID,0,VALID,88.6375,VALID,0.107441,VALID,20.5009,VALID,150,VALID,1.33203,
2010-03-18, 02:53:04,VALID,918.417,VALID,0,VALID,87.715,VALID,0,VALID,20.5399,VALID,163,VALID,1.97031,
2010-03-18, 02:54:04,VALID,918.434,VALID,0,VALID,87.3567,VALID,0.107441,VALID,20.6374,VALID,128,VALID,1.75352,
2010-03-18, 02:55:04,VALID,918.436,VALID,0,VALID,86.8993,VALID,0,VALID,20.678,VALID,125,VALID,1.46172,
2010-03-18, 02:56:04,VALID,918.429,VALID,0,VALID,86.8155,VALID,0,VALID,20.7365,VALID,125,VALID,1.03867,
2010-03-18, 02:57:04,VALID,918.474,VALID,0,VALID,87.1356,VALID,0,VALID,20.6585,VALID,114,VALID,1.25625,
2010-03-18, 02:58:04,VALID,918.454,VALID,0,VALID,87.2729,VALID,0,VALID,20.5789,VALID,122,VALID,1.47812,
2010-03-18, 02:59:04,VALID,918.473,VALID,0,VALID,87.6388,VALID,0,VALID,20.5609,VALID,123,VALID,0.697266,
2010-03-18, 03:00:04,VALID,918.443,VALID,0,VALID,87.4711,VALID,0,VALID,20.5009,VALID,123,VALID,1.19883,
2010-03-18, 03:01:04,VALID,918.434,VALID,0,VALID,86.724,VALID,0,VALID,20.5219,VALID,123,VALID,0.925391,
2010-03-18, 03:02:04,VALID,918.463,VALID,0,VALID,86.6935,VALID,0,VALID,20.5399,VALID,156,VALID,1.14258,
2010-03-18, 03:03:04,VALID,918.426,VALID,0,VALID,86.2666,VALID,0,VALID,20.678,VALID,161,VALID,1.26797,
2010-03-18, 03:04:04,VALID,918.431,VALID,0,VALID,85.7787,VALID,0,VALID,20.7365,VALID,153,VALID,1.48867,
2010-03-18, 03:05:04,VALID,918.444,VALID,0,VALID,85.0392,VALID,0,VALID,20.8129,VALID,153,VALID,1.19023,
2010-03-18, 03:06:04,VALID,918.385,VALID,0,VALID,84.9325,VALID,0.107441,VALID,20.891,VALID,148,VALID,0.869531,
2010-03-18, 03:07:04,VALID,918.378,VALID,0,VALID,83.8042,VALID,0,VALID,20.93,VALID,146,VALID,1.44961,
2010-03-18, 03:08:04,VALID,918.394,VALID,0,VALID,83.8652,VALID,0,VALID,20.969,VALID,154,VALID,1.51094,
2010-03-18, 03:09:04,VALID,918.352,VALID,0,VALID,83.5374,VALID,0.107441,VALID,21.0291,VALID,146,VALID,1.44102,
2010-03-18, 03:10:04,VALID,918.353,VALID,0,VALID,83.1562,VALID,0,VALID,21.0486,VALID,148,VALID,1.72539,
2010-03-18, 03:11:04,VALID,918.357,VALID,0,VALID,82.3329,VALID,0,VALID,21.047,VALID,128,VALID,1.19062,
2010-03-18, 03:12:04,VALID,918.331,VALID,0,VALID,81.5172,VALID,0.107441,VALID,21.125,VALID,128,VALID,1.70664,
2010-03-18, 03:13:04,VALID,918.348,VALID,0,VALID,82.1347,VALID,0,VALID,21.125,VALID,105,VALID,1.73008,
2010-03-18, 03:14:04,VALID,918.353,VALID,0,VALID,81.5858,VALID,0.107441,VALID,21.086,VALID,127,VALID,2.00078,
2010-03-18, 03:15:04,VALID,918.315,VALID,0,VALID,82.1804,VALID,0,VALID,21.1836,VALID,126,VALID,1.42305,
2010-03-18, 03:16:04,VALID,918.308,VALID,0,VALID,81.4028,VALID,0,VALID,21.2242,VALID,126,VALID,1.54727,
2010-03-18, 03:17:04,VALID,918.284,VALID,0,VALID,81.6239,VALID,0,VALID,21.2242,VALID,116,VALID,1.27734,
2010-03-18, 03:18:04,VALID,918.279,VALID,0,VALID,81.014,VALID,0.107441,VALID,21.2421,VALID,117,VALID,1.50234,
2010-03-18, 03:19:04,VALID,918.287,VALID,0,VALID,79.2225,VALID,0,VALID,21.3591,VALID,141,VALID,1.93594,
2010-03-18, 03:20:04,VALID,918.293,VALID,0,VALID,80.8692,VALID,0,VALID,21.3786,VALID,133,VALID,1.14961,
2010-03-18, 03:21:04,VALID,918.288,VALID,0,VALID,81.1894,VALID,0,VALID,21.3006,VALID,161,VALID,1.61055,
2010-03-18, 03:22:04,VALID,918.277,VALID,0,VALID,81.2504,VALID,0,VALID,21.3412,VALID,139,VALID,1.59141,
2010-03-18, 03:23:04,VALID,918.313,VALID,0,VALID,80.9302,VALID,0,VALID,21.3006,VALID,155,VALID,1.89648,
2010-03-18, 03:24:04,VALID,918.282,VALID,0,VALID,80.1831,VALID,0.107441,VALID,21.3591,VALID,155,VALID,1.61367,
2010-03-18, 03:25:04,VALID,918.308,VALID,0,VALID,80.5414,VALID,0.107441,VALID,21.4372,VALID,115,VALID,1.73984,
2010-03-18, 03:26:04,VALID,918.297,VALID,0,VALID,80.7777,VALID,0,VALID,21.3981,VALID,146,VALID,1.78125,
2010-03-18, 03:27:04,VALID,918.27,VALID,0,VALID,81.4867,VALID,0.107441,VALID,21.3608,VALID,131,VALID,1.06289,
2010-03-18, 03:28:04,VALID,918.281,VALID,0,VALID,82.2338,VALID,0.107441,VALID,21.1819,VALID,131,VALID,0.858594,
2010-03-18, 03:29:04,VALID,918.278,VALID,0,VALID,82.9428,VALID,0.107441,VALID,21.1055,VALID,131,VALID,1.21953,
2010-03-18, 03:30:04,VALID,918.271,VALID,0,VALID,83.3316,VALID,0.107441,VALID,21.047,VALID,131,VALID,1.22422,
2010-03-18, 03:31:04,VALID,918.314,VALID,0,VALID,83.667,VALID,0.107441,VALID,21.008,VALID,130,VALID,1.28008,
2010-03-18, 03:32:04,VALID,918.323,VALID,0,VALID,83.3544,VALID,0.107441,VALID,20.93,VALID,124,VALID,1.82461,
2010-03-18, 03:33:04,VALID,918.321,VALID,0,VALID,83.1943,VALID,0,VALID,20.9105,VALID,134,VALID,1.49023,
2010-03-18, 03:34:04,VALID,918.291,VALID,0,VALID,83.1181,VALID,0.107441,VALID,20.9511,VALID,94,VALID,1.32539,
2010-03-18, 03:35:04,VALID,918.301,VALID,0,VALID,83.1257,VALID,0.107441,VALID,20.891,VALID,122,VALID,1.25859,
2010-03-18, 03:36:04,VALID,918.285,VALID,0,VALID,83.8347,VALID,0.107441,VALID,20.8129,VALID,122,VALID,0.949609,
2010-03-18, 03:37:04,VALID,918.31,VALID,0,VALID,83.9567,VALID,0.107441,VALID,20.7349,VALID,122,VALID,1.67539,
2010-03-18, 03:38:04,VALID,918.311,VALID,0,VALID,83.5603,VALID,0.107441,VALID,20.6959,VALID,101,VALID,2.25273,
2010-03-18, 03:39:04,VALID,918.307,VALID,0,VALID,83.5755,VALID,0.107441,VALID,20.7154,VALID,113,VALID,1.85117,
2010-03-18, 03:40:04,VALID,918.317,VALID,0,VALID,83.7813,VALID,0,VALID,20.7544,VALID,151,VALID,1.53242,